Wind_Speed
1 6 6 10 5 5 5 7 10 11 5 9 13 15 15 11 14 18 18 19 19 20 21 22 22 22 22 22 22 22 23 23 22 19 19 16 15 13 11 9 10 9 8 8
5 7 7 2 2 5 8 11 12 10 2 6 13 15 14 13 19 20 18 20 21 18 18 24 24 25 25 25 26 26 26 26 24 21 19 16 15 13 12 11 10 9 10 9
8 1 2 3 5 7 10 8 11 12 13 14 15 18 20 14 18 14 18 18 21 22 24 21 28 29 27 28 28 29 28 27 26 23 20 16 16 13 13 13 12 11 11 10
7 1 7 8 12 9 12 4 7 10 10 10 8 11 16 13 13 15 16 19 21 24 23 22 29 29 29 30 27 26 27 28 27 26 24 23 21 18 15 16 14 13 12 11
4 5 5 7 6 5 4 3 9 12 14 14 18 11 14 6 13 15 16 19 22 24 25 25 30 29 29 29 32 40 39 32 31 30 26 25 21 19 16 16 16 14 13 13
8 1 5 7 3 6 3 11 14 14 10 8 8 9 8 7 10 13 15 15 19 21 23 22 30 29 30 33 34 29 33 34 32 32 30 28 25 22 20 19 19 17 15 15
2 7 5 5 8 12 9 9 5 4 5 7 4 7 11 14 12 12 14 14 11 15 19 22 21 31 32 39 37 32 35 35 36 34 33 30 27 25 23 23 21 20 19 18
5 5 6 6 6 2 5 6 4 6 8 14 14 7 2 9 14 16 17 17 15 11 15 20 25 30 34 36 39 39 37 37 37 36 35 32 29 26 23 24 22 21 20 18
4 5 4 7 4 5 6 6 3 9 15 10 5 6 10 12 6 8 11 10 13 11 13 18 21 30 32 35 38 40 38 39 39 38 35 34 31 29 27 24 23 21 18 17
2 7 8 2 6 11 11 3 5 5 5 11 9 17 11 5 10 10 12 11 13 13 11 14 16 25 29 33 35 36 35 36 37 37 36 35 33 31 28 26 26 23 21 19
1 6 8 8 11 13 7 10 7 8 9 10 12 8 4 8 9 15 15 18 19 19 12 13 14 20 28 30 32 34 37 38 37 36 36 34 34 33 31 30 27 26 23 24
7 5 9 16 11 11 14 17 15 10 10 13 12 18 17 14 11 15 15 19 21 18 14 11 13 20 25 27 30 35 36 38 38 37 36 36 34 33 33 32 29 27 27 28
7 5 9 11 13 15 13 18 15 19 18 26 15 15 6 10 12 18 20 20 21 16 11 10 12 15 24 30 33 35 35 38 36 37 34 33 35 34 35 33 31 29 30 28
6 10 17 15 14 9 11 13 15 15 13 19 22 26 30 23 20 20 19 21 20 13 12 13 14 16 24 28 32 33 36 36 36 34 35 35 36 38 36 33 32 32 28 30
6 19 17 24 26 22 19 24 28 27 29 25 31 30 35 26 26 26 24 22 22 16 14 17 18 17 22 25 27 28 30 31 33 34 35 36 34 31 31 31 31 31 32 36
10 17 11 22 28 23 22 30 35 30 33 32 34 36 38 29 27 25 25 23 23 19 18 19 19 17 19 27 29 28 29 30 32 33 35 31 29 27 29 31 31 34 34 34
12 9 8 24 22 18 18 35 31 31 33 27 31 34 31 27 26 24 23 22 22 22 19 17 19 19 21 20 22 25 24 25 27 29 28 28 27 29 30 27 27 27 30 34
20 17 12 15 15 16 25 20 25 29 26 26 28 28 27 25 24 23 27 23 23 22 16 14 16 20 21 16 19 20 19 23 27 26 25 25 25 25 24 25 28 27 27 31
27 22 13 14 16 24 26 27 23 26 28 29 27 30 30 27 22 32 22 19 23 22 15 14 18 15 18 21 20 14 20 23 23 23 22 22 24 24 23 25 25 26 25 26
22 22 16 13 21 12 15 22 27 27 29 33 29 28 25 19 16 22 17 18 16 13 12 14 17 15 13 14 17 21 19 20 21 19 19 18 19 20 20 20 20 20 21 20
11 16 20 18 17 17 24 26 23 19 23 18 26 28 29 24 20 23 9 7 10 10 10 10 13 15 12 11 12 14 14 14 13 12 12 13 13 13 14 13 13 14 16 17
22 16 17 17 22 26 23 23 24 21 25 27 24 19 13 11 15 14 12 11 12 11 11 10 16 19 18 9 13 15 13 11 11 12 11 11 11 10 10 11 12 13 16 17
5 10 7 10 14 17 18 25 25 25 26 29 28 34 30 28 24 13 11 12 14 14 14 11 18 18 16 10 12 16 13 13 14 14 13 12 10 9 10 12 12 12 14 14
25 25 22 23 32 30 30 32 33 32 32 32 30 31 30 29 27 22 13 16 16 14 16 12 15 18 14 11 11 15 14 13 14 14 13 11 9 8 7 9 9 10 13 14
19 20 25 27 33 29 32 30 32 34 34 33 36 34 32 30 28 16 16 15 10 14 22 21 16 18 17 15 15 14 14 13 14 13 11 9 7 5 6 5 6 10 11 12
22 27 19 24 30 25 29 32 32 30 27 30 30 31 18 14 13 12 10 11 12 15 23 21 21 22 19 18 18 15 12 12 12 11 9 7 4 2 1 3 7 10 15 18
Wind_Direction
123 260 271 328 311 326 296 279 281 287 255 277 260 264 269 209 222 225 214 212 213 211 202 197 195 192 189 184 180 181 183 182 178 180 178 177 177 172 166 164 157 152 153 147
221 259 327 279 248 257 272 283 282 291 159 254 279 272 270 261 233 231 225 218 218 213 209 201 197 193 193 183 187 188 189 187 185 183 186 183 179 179 174 166 166 161 158 157
250 98 108 245 258 270 271 279 292 301 307 271 262 271 244 249 251 243 234 224 222 213 213 203 200 195 188 191 191 191 193 192 188 184 182 181 177 177 176 174 172 173 168 165
251 224 255 264 265 271 282 13 287 291 294 292 320 289 289 249 242 233 237 225 222 219 218 210 207 196 190 195 192 198 197 195 192 187 187 186 185 184 190 179 177 175 173 170
114 203 239 261 283 199 292 306 299 294 283 291 273 260 279 253 253 257 238 231 225 223 218 217 209 196 194 194 194 194 194 196 194 193 193 192 194 193 185 179 176 177 176 178
275 200 256 259 252 224 289 281 285 270 273 261 288 248 287 297 260 269 272 249 234 230 219 222 215 197 194 195 205 205 194 196 196 196 197 196 196 191 184 182 180 184 183 185
215 229 255 245 256 230 244 274 291 253 213 273 45 300 264 307 299 285 286 297 286 230 223 208 203 199 193 195 203 195 200 198 196 199 200 199 200 196 192 188 188 185 186 191
279 238 199 156 229 330 213 230 272 300 305 307 306 261 271 319 303 295 285 281 284 258 221 222 205 205 201 200 198 197 197 202 198 200 202 201 203 201 200 197 197 195 196 193
241 233 162 217 199 219 146 224 8 283 272 276 237 252 253 273 302 301 284 286 280 263 228 223 214 208 204 201 200 201 195 199 200 202 203 203 203 203 203 202 203 203 198 195
296 266 224 195 208 232 239 61 235 211 284 297 288 298 285 255 306 319 310 307 301 277 252 231 221 213 200 204 200 198 200 203 203 204 204 203 204 206 205 203 205 203 200 196
295 241 231 214 223 245 189 226 235 285 267 275 296 276 17 276 294 302 291 294 299 303 269 244 222 203 201 202 193 195 194 198 206 207 205 205 205 208 207 208 208 206 202 198
15 283 251 249 253 260 268 268 250 241 255 248 267 273 283 266 283 295 292 295 294 302 284 236 211 193 197 200 192 196 196 200 205 209 206 207 205 207 210 212 212 210 207 208
354 245 273 254 237 230 244 246 249 260 261 261 264 259 212 285 283 289 291 295 294 297 257 214 199 199 197 200 202 200 198 204 206 209 207 208 208 208 213 214 212 211 208 209
297 249 251 258 261 296 270 281 282 266 257 263 252 267 273 281 282 293 288 292 296 284 242 211 202 203 205 205 203 203 204 205 207 207 206 210 211 212 214 215 215 213 211 211
265 261 259 264 268 268 275 271 269 261 260 262 268 269 270 280 288 290 292 287 288 282 239 222 212 204 203 204 203 202 205 203 202 206 210 214 215 217 218 219 218 214 212 220
269 264 275 272 268 279 271 266 260 258 262 264 268 270 269 283 277 278 279 279 280 273 247 230 215 212 205 205 197 197 200 205 203 208 213 211 207 213 219 218 214 206 216 211
266 277 260 262 273 282 269 247 258 258 255 258 262 265 278 274 273 270 271 272 274 269 259 235 220 214 211 207 197 203 196 205 205 209 216 214 209 207 209 209 207 218 215 212
242 237 226 260 281 255 245 260 259 262 264 260 263 268 273 267 272 278 275 278 267 271 267 233 216 208 202 202 197 189 183 205 203 211 215 211 211 213 214 218 222 221 220 218
223 228 234 231 244 258 272 259 253 257 263 261 264 267 268 269 274 266 263 263 262 261 243 217 205 207 182 192 199 188 195 208 209 210 217 210 213 215 214 219 222 223 221 221
214 219 224 230 234 251 248 267 259 262 264 264 266 271 269 270 262 268 270 266 251 244 213 191 172 162 171 180 171 180 201 205 210 206 207 208 208 209 213 217 219 221 222 224
203 201 219 229 245 261 261 272 282 263 258 256 252 256 250 252 256 263 287 237 222 211 182 175 138 134 137 148 171 185 187 200 201 192 186 187 193 198 206 208 210 213 215 219
250 250 245 245 247 261 250 264 254 264 277 278 275 283 276 276 286 262 243 211 174 158 139 141 114 93 100 139 157 160 150 154 158 152 154 161 172 177 181 191 197 203 211 218
241 229 242 256 246 255 271 291 285 282 263 261 264 275 277 283 282 263 234 188 159 135 117 116 102 104 120 161 153 132 136 137 136 132 135 143 146 161 170 187 194 202 213 220
262 262 257 267 257 262 265 269 270 276 283 286 260 254 258 266 268 276 210 171 155 142 121 125 152 140 140 133 124 126 128 126 121 122 121 131 142 151 171 192 199 209 216 221
260 264 265 272 272 275 267 267 270 270 263 262 265 271 263 260 256 225 191 165 162 141 147 166 160 138 130 130 117 112 110 120 112 105 106 104 110 150 183 203 220 233 241 239
253 255 250 258 260 260 269 275 280 281 269 264 261 261 271 250 201 180 183 154 147 169 163 151 138 126 125 115 104 100 99 101 101 97 90 91 99 94 332 279 274 266 255 254
Height
798 801 802 798 800 802 805 808 807 795 789 802 794 790 781 777 790 792 796 805 807 807 815 822 828 831 835 839 843 847 851 854 857 862 865 868 870 872 874 876 876 876 878 880
803 805 798 800 803 807 806 809 804 792 794 802 791 786 779 772 775 778 786 796 802 808 810 816 823 827 831 833 837 842 846 850 854 858 863 866 869 871 872 873 875 876 877 878
804 799 803 803 803 808 802 809 803 804 793 788 790 787 772 768 767 771 775 780 790 798 801 808 814 819 823 828 832 836 841 846 850 854 859 864 867 870 871 872 873 874 875 877
802 797 804 802 804 799 806 793 801 801 801 802 782 802 774 761 765 768 771 775 781 785 792 796 803 810 816 822 828 835 839 842 846 850 853 857 859 863 866 868 870 872 875 876
798 800 801 803 797 795 797 796 797 798 799 797 788 793 771 758 769 762 757 763 767 770 779 786 793 803 811 817 821 819 822 833 839 844 848 852 855 859 862 865 868 871 873 875
794 792 794 790 790 794 792 795 791 789 794 806 780 782 775 760 758 756 747 744 751 758 767 780 788 799 802 808 813 819 822 826 835 839 843 846 850 854 857 862 864 868 870 872
797 793 787 789 797 788 795 802 808 805 799 796 781 789 770 756 751 750 747 741 738 743 754 763 776 784 790 795 803 808 815 821 824 833 837 841 845 849 852 856 859 862 865 867
799 802 792 790 789 789 791 794 806 820 801 791 772 789 766 749 746 744 743 742 739 740 745 751 762 776 781 788 793 798 805 812 817 822 829 834 840 844 848 851 854 857 860 863
798 801 784 786 785 786 795 801 785 801 791 797 776 768 755 746 747 744 741 740 740 738 739 744 752 763 773 779 784 790 796 801 808 814 822 827 833 837 841 845 849 853 857 859
788 803 781 781 785 783 787 781 800 795 814 804 770 767 758 755 751 745 741 737 733 730 735 738 743 752 765 772 778 785 793 798 801 808 815 820 826 831 836 839 842 847 850 854
793 794 787 783 786 784 791 793 792 789 789 803 797 770 744 750 745 746 741 735 731 727 728 733 737 745 758 764 769 778 783 788 796 803 808 813 817 824 828 831 835 840 844 846
797 796 796 783 768 767 772 775 775 795 794 779 788 765 739 740 740 737 736 732 726 724 727 729 733 740 750 757 764 769 775 781 787 796 801 805 810 815 820 824 828 834 836 839
811 795 800 786 775 770 780 772 772 771 771 775 792 758 732 733 738 734 731 725 720 717 724 726 732 736 741 747 754 760 766 770 779 788 792 798 801 806 809 815 820 824 827 832
815 804 795 789 774 768 782 778 774 774 781 771 761 750 730 733 730 726 722 719 713 711 719 722 728 731 736 740 744 750 756 763 770 778 782 788 791 793 799 806 811 815 820 824
814 804 797 786 778 780 788 784 773 771 763 769 745 746 722 728 728 722 715 714 711 708 713 716 719 722 729 734 738 743 749 756 762 769 773 776 781 789 794 799 803 807 809 811
808 804 801 795 777 781 788 770 758 759 754 752 742 733 699 719 716 714 710 708 705 701 703 705 710 716 720 725 729 735 740 748 755 759 763 769 773 780 786 790 793 795 797 802
824 816 810 800 785 784 787 750 750 741 735 739 736 711 711 714 711 706 699 700 697 693 691 696 701 705 711 719 724 728 734 744 749 752 758 762 766 769 773 780 786 790 793 795
818 816 818 803 799 803 737 734 726 722 720 718 711 704 702 700 699 695 687 689 687 685 687 690 695 699 705 716 719 726 727 737 742 745 752 755 760 765 770 775 778 783 787 788
800 805 805 801 776 753 741 722 727 721 718 704 704 699 695 691 695 679 681 684 682 678 681 683 689 696 699 708 716 719 725 732 736 738 743 747 753 758 762 767 771 775 779 782
778 791 797 786 782 756 723 713 712 723 710 699 703 691 690 690 700 674 670 673 678 682 682 686 687 693 701 708 711 718 721 727 729 733 738 743 748 751 756 760 765 769 772 777
769 777 783 775 774 739 722 717 715 730 694 684 682 677 679 684 676 666 670 672 677 682 682 687 687 692 700 703 712 716 720 725 729 732 735 740 744 748 753 758 761 765 768 771
766 765 755 759 761 741 716 715 718 698 697 686 676 675 671 669 667 667 669 672 676 680 685 692 691 696 704 712 715 719 721 727 730 732 734 738 743 747 750 755 758 760 763 765
768 758 758 746 723 705 698 699 693 693 689 681 688 676 670 670 666 670 671 676 679 681 686 696 694 700 706 715 718 716 724 726 727 729 734 739 742 745 748 752 754 756 760 760
743 743 735 736 704 705 702 694 690 691 685 677 671 668 666 660 659 661 667 672 675 680 685 699 703 704 713 717 720 719 723 725 727 729 732 736 740 742 746 750 751 753 754 754
728 732 721 709 694 706 687 687 682 676 673 669 663 661 658 655 655 663 664 668 674 677 686 699 702 705 713 717 719 721 722 726 728 730 734 736 740 743 746 746 748 750 750 751
718 715 716 691 691 687 676 672 673 663 655 652 651 647 642 643 653 664 667 669 673 682 687 696 701 706 714 717 719 723 725 727 728 730 733 736 740 742 743 745 746 745 745 746